CHH9792 ZSAM-ZGGG

Flight info

Callsign CHH9792
Flight time N/A
Altitude 27600
Route NUSPA9Z NUSPA W597 IKATA A470 BEBEM R200 GUBLO W22 IDUMA IDUMA9
Aircraft B738/M-SDE2E3FGHIRWXY/LB1

Departure

Time 2026-05-08 04:10
Airport Xiamen Gaoqi International Airport (ZSAM)

Arrival

Time N/A
Airport Guangzhou Baiyun International Airport (ZGGG)
Time Latitude Longitude Altitude Speed Heading
2026-05-08 03:55 24.53826 118.12634 44 ft 2 kts 142°
2026-05-08 03:56 24.53839 118.12624 41 ft 2 kts 145°
2026-05-08 03:56 24.53853 118.12614 40 ft 2 kts 149°
2026-05-08 03:56 24.53867 118.12605 42 ft 2 kts 157°
2026-05-08 03:56 24.53883 118.12600 41 ft 2 kts 180°
2026-05-08 03:57 24.53899 118.12604 42 ft 2 kts 196°
2026-05-08 03:57 24.53914 118.12612 41 ft 2 kts 238°
2026-05-08 03:57 24.53916 118.12616 41 ft 0 kts 239°
2026-05-08 03:58 24.53876 118.12554 44 ft 23 kts 233°
2026-05-08 03:58 24.53768 118.12404 44 ft 24 kts 232°
2026-05-08 03:58 24.53665 118.12264 44 ft 23 kts 230°
2026-05-08 03:59 24.53567 118.12133 44 ft 22 kts 231°
2026-05-08 03:59 24.53553 118.12112 41 ft 0 kts 238°
2026-05-08 04:02 24.53542 118.12034 42 ft 13 kts 285°
2026-05-08 04:02 24.53552 118.12012 44 ft 1 kts 307°
2026-05-08 04:02 24.53561 118.12010 42 ft 2 kts 343°
2026-05-08 04:03 24.53574 118.12007 44 ft 2 kts 351°
2026-05-08 04:03 24.53613 118.11999 44 ft 3 kts 346°
2026-05-08 04:03 24.53634 118.11984 42 ft 4 kts 312°
2026-05-08 04:04 24.53638 118.11957 43 ft 4 kts 259°
2026-05-08 04:04 24.53623 118.11934 42 ft 4 kts 227°
2026-05-08 04:04 24.53603 118.11910 43 ft 4 kts 227°
2026-05-08 04:04 24.53541 118.11835 42 ft 25 kts 230°
2026-05-08 04:05 24.53431 118.11682 42 ft 25 kts 233°
2026-05-08 04:05 24.53403 118.11634 42 ft 0 kts 245°
2026-05-08 04:05 24.53395 118.11595 44 ft 8 kts 263°
2026-05-08 04:06 24.53408 118.11539 44 ft 8 kts 293°
2026-05-08 04:06 24.53438 118.11491 43 ft 8 kts 316°
2026-05-08 04:06 24.53483 118.11465 44 ft 8 kts 358°
2026-05-08 04:06 24.53528 118.11490 44 ft 7 kts 49°
2026-05-08 04:07 24.53545 118.11542 44 ft 7 kts 71°
2026-05-08 04:07 24.53573 118.11587 44 ft 7 kts 52°
2026-05-08 04:07 24.53605 118.11629 42 ft 7 kts 51°
2026-05-08 04:07 24.53635 118.11674 44 ft 8 kts 54°
2026-05-08 04:08 24.53644 118.11686 41 ft 0 kts 51°
2026-05-08 04:09 24.53735 118.11813 42 ft 45 kts 53°
2026-05-08 04:09 24.54157 118.12407 43 ft 147 kts 52°
2026-05-08 04:09 24.54932 118.13494 369 ft 200 kts 55°
2026-05-08 04:10 24.55835 118.14736 1043 ft 208 kts 52°
2026-05-08 04:10 24.56567 118.15813 2998 ft 140 kts 56°
2026-05-08 04:10 24.57098 118.16596 4272 ft 128 kts 52°
2026-05-08 04:10 24.57792 118.17525 3907 ft 197 kts 51°
2026-05-08 04:11 24.58803 118.18820 3301 ft 226 kts 50°
2026-05-08 04:11 24.59718 118.19966 3737 ft 181 kts 50°
2026-05-08 04:11 24.60570 118.21019 2892 ft 200 kts 50°
2026-05-08 04:11 24.61554 118.22263 1972 ft 218 kts 50°
2026-05-08 04:12 24.62434 118.23439 2103 ft 181 kts 52°
2026-05-08 04:12 24.63232 118.24506 1502 ft 189 kts 52°
2026-05-08 04:12 24.63969 118.25567 1793 ft 166 kts 53°
2026-05-08 04:12 24.64673 118.26610 1875 ft 189 kts 54°
2026-05-08 04:13 24.65489 118.27786 2235 ft 190 kts 53°
2026-05-08 04:13 24.66277 118.28890 3004 ft 178 kts 53°
2026-05-08 04:13 24.67081 118.30054 3085 ft 212 kts 54°
2026-05-08 04:13 24.68072 118.31539 2349 ft 266 kts 54°
2026-05-08 04:14 24.69079 118.33112 2756 ft 240 kts 56°
2026-05-08 04:14 24.70019 118.34628 2350 ft 259 kts 56°
2026-05-08 04:14 24.71404 118.35947 1460 ft 276 kts 27°
2026-05-08 04:14 24.73247 118.36532 1217 ft 271 kts 17°
2026-05-08 04:15 24.75115 118.37044 220 ft 293 kts 16°
2026-05-08 04:15 24.76895 118.37634 1137 ft 275 kts 25°
2026-05-08 04:15 24.78520 118.38926 1405 ft 308 kts 51°
2026-05-08 04:15 24.79038 118.41180 2624 ft 309 kts 96°
2026-05-08 04:16 24.77935 118.43288 2853 ft 348 kts 137°
2026-05-08 04:16 24.75656 118.44309 3717 ft 359 kts 172°
2026-05-08 04:16 24.73283 118.44056 5361 ft 329 kts 195°
2026-05-08 04:16 24.71147 118.43108 4026 ft 352 kts 217°
2026-05-08 04:17 24.69848 118.40644 3108 ft 377 kts 255°
2026-05-08 04:17 24.69128 118.38129 3467 ft 322 kts 251°
2026-05-08 04:17 24.68352 118.35880 2402 ft 319 kts 248°
2026-05-08 04:17 24.67610 118.33635 2268 ft 294 kts 252°
2026-05-08 04:18 24.66997 118.31528 1210 ft 293 kts 253°
2026-05-08 04:18 24.66287 118.29516 1394 ft 255 kts 240°
2026-05-08 04:18 24.65404 118.27944 1437 ft 231 kts 234°
2026-05-08 04:18 24.64531 118.26671 1743 ft 197 kts 230°
2026-05-08 04:19 24.63657 118.25496 1411 ft 200 kts 229°
2026-05-08 04:19 24.62650 118.24094 1396 ft 251 kts 231°
2026-05-08 04:19 24.61598 118.22665 1307 ft 236 kts 231°
2026-05-08 04:19 24.60651 118.21277 1174 ft 216 kts 237°
2026-05-08 04:20 24.59825 118.19860 1222 ft 217 kts 234°
2026-05-08 04:20 24.58918 118.18570 1056 ft 203 kts 229°
2026-05-08 04:20 24.57964 118.17319 460 ft 219 kts 227°
2026-05-08 04:20 24.57020 118.16294 586 ft 179 kts 224°
2026-05-08 04:21 24.56081 118.15305 476 ft 177 kts 220°
2026-05-08 04:21 24.55416 118.14306 61 ft 139 kts 272°
2026-05-08 04:21 24.55452 118.13771 43 ft 66 kts 278°